Overview Statistics Trail Chart Weather Telemetry Raw packets
 

This is the latest recevied weather packets stored in our database for station/object IW2NIA-3. If no packets are shown the sender has not sent any weather packets the latest 10 day(s).

<< 3 4 5 6 7 8 9 >>
Time Temp. Humidity Pressure Rain* Wind** Luminosity Snow
1788556722 22.78° C 67% 1017.2 hPa 0 mm - - -
1788555811 23.33° C 67% 1017.3 hPa 0 mm - - -
1788554921 23.89° C 66% 1017.4 hPa 0 mm - - -
1788554017 24.44° C 65% 1017.4 hPa 0 mm - - -
1788553112 24.44° C 64% 1017.5 hPa 0 mm - - -
1788552209 25° C 63% 1017.4 hPa 0 mm - - -
1788551325 25° C 59% 1017.2 hPa 0 mm - - -
1788550417 25° C 58% 1017.2 hPa 0 mm - - -
1788549509 25° C 62% 1017.2 hPa 0 mm - - -
1788548623 25.56° C 64% 1017 hPa 0 mm - - -
1788547722 26.67° C 67% 1016.9 hPa 0 mm - - -
1788546817 26.67° C 65% 1016.7 hPa 0 mm - - -
1788545915 27.22° C 60% 1016.6 hPa 0 mm - - -
1788545015 28.33° C 55% 1016.5 hPa 0 mm - - -
1788544108 28.89° C 53% 1016.4 hPa 0 mm - - -
1788543206 29.44° C 52% 1016.3 hPa 0 mm - - -
1788542325 30° C 50% 1016.2 hPa 0 mm - - -
1788541422 30.56° C 47% 1016.3 hPa 0 mm - - -
1788540515 31.11° C 45% 1016.4 hPa 0 mm - - -
1788539617 31.67° C 44% 1016.4 hPa 0 mm - - -
1788538714 32.22° C 44% 1016.5 hPa 0 mm - - -
1788537809 32.78° C 41% 1016.6 hPa 0 mm - - -
1788536910 32.22° C 41% 1016.7 hPa 0 mm - - -
1788536008 32.22° C 43% 1016.8 hPa 0 mm - - -
1788535127 32.78° C 40% 1016.8 hPa 0 mm - - -

* Rain latest hour (hover to see other rain measurements)
** Current wind speed in m/s (hover to see current wind gust speed)